| time (UTC) | temp F | wind direction | speed knots | gust knots | rain 1hr in | rain 24hr in | rain mn in | humidity % | barometer mb |
| 20260509134904 | 58 | 248 | 6.1 | 9.6 | 0.00 | 0.00 | 0.00 | 59 | 1019.7 |
| 20260509134354 | 58 | 203 | 4.3 | 9.6 | 0.00 | 0.00 | 0.00 | 58 | 1019.7 |
| 20260509133844 | 59 | 225 | 3.5 | 11.3 | 0.00 | 0.00 | 0.00 | 59 | 1019.7 |
| 20260509133334 | 58 | 225 | 7.0 | 11.3 | 0.00 | 0.00 | 0.00 | 57 | 1019.6 |
| 20260509132825 | 59 | 225 | 6.1 | 9.6 | 0.00 | 0.00 | 0.00 | 56 | 1019.3 |
| 20260509132314 | 59 | 203 | 5.2 | 7.8 | 0.00 | 0.00 | 0.00 | 57 | 1019.4 |
| 20260509131803 | 59 | 225 | 4.3 | 11.3 | 0.00 | 0.00 | 0.00 | 57 | 1019.4 |
| 20260509131253 | 59 | 248 | 2.6 | 11.3 | 0.00 | 0.00 | 0.00 | 58 | 1019.1 |
| 20260509130234 | 59 | 203 | 3.5 | 6.1 | 0.00 | 0.00 | 0.00 | 59 | 1019.0 |
| 20260509125723 | 59 | 203 | 3.5 | 7.0 | 0.00 | 0.00 | 0.00 | 60 | 1019.0 |
| 20260509125213 | 59 | 225 | 3.5 | 7.8 | 0.00 | 0.00 | 0.00 | 61 | 1018.7 |
| 20260509124153 | 58 | 225 | 3.5 | 7.0 | 0.00 | 0.00 | 0.00 | 60 | 1018.3 |
| 20260509123643 | 58 | 248 | 4.3 | 7.0 | 0.00 | 0.00 | 0.00 | 61 | 1018.3 |
| 20260509123133 | 58 | 225 | 3.5 | 7.0 | 0.00 | 0.00 | 0.00 | 62 | 1018.6 |
| 20260509122622 | 58 | 248 | 2.6 | 6.1 | 0.00 | 0.00 | 0.00 | 63 | 1018.2 |
| 20260509122113 | 58 | 225 | 2.6 | 6.1 | 0.00 | 0.00 | 0.00 | 64 | 1018.1 |
| 20260509121052 | 58 | 248 | 3.5 | 7.0 | 0.00 | 0.00 | 0.00 | 64 | 1017.9 |
| 20260509120032 | 57 | 203 | 3.5 | 5.2 | 0.00 | 0.00 | 0.00 | 66 | 1017.6 |
| 20260509115522 | 57 | 248 | 1.7 | 6.1 | 0.00 | 0.00 | 0.00 | 68 | 1017.6 |
| 20260509115012 | 57 | 180 | 3.5 | 6.1 | 0.00 | 0.00 | 0.00 | 67 | 1017.5 |
| 20260509114501 | 57 | 203 | 2.6 | 5.2 | 0.00 | 0.00 | 0.00 | 68 | 1017.3 |
| 20260509113952 | 57 | 203 | 1.7 | 6.1 | 0.00 | 0.00 | 0.00 | 68 | 1017.2 |
| 20260509112932 | 56 | 225 | 2.6 | 3.5 | 0.00 | 0.00 | 0.00 | 69 | 1017.1 |
| 20260509112421 | 56 | 203 | 1.7 | 5.2 | 0.00 | 0.00 | 0.00 | 70 | 1017.2 |
| 20260509110852 | 56 | 225 | 3.5 | 5.2 | 0.00 | 0.00 | 0.00 | 70 | 1017.0 |
| 20260509110340 | 56 | 248 | 1.7 | 5.2 | 0.00 | 0.00 | 0.00 | 71 | 1016.6 |
| 20260509105830 | 56 | 225 | 1.7 | 6.1 | 0.00 | 0.00 | 0.00 | 70 | 1016.6 |
| 20260509105320 | 56 | 225 | 2.6 | 6.1 | 0.00 | 0.00 | 0.00 | 70 | 1016.5 |
| 20260509104811 | 56 | 225 | 2.6 | 5.2 | 0.00 | 0.00 | 0.00 | 71 | 1016.3 |
| 20260509104300 | 56 | 225 | 1.7 | 5.2 | 0.00 | 0.00 | 0.00 | 70 | 1016.1 |
| 20260509103750 | 55 | 225 | 1.7 | 5.2 | 0.00 | 0.00 | 0.00 | 71 | 1015.9 |
| 20260509103240 | 55 | 180 | 1.7 | 5.2 | 0.00 | 0.00 | 0.00 | 72 | 1015.6 |
| 20260509102730 | 56 | 248 | 1.7 | 5.2 | 0.00 | 0.00 | 0.00 | 71 | 1015.7 |
| 20260509102220 | 56 | 180 | 2.6 | 5.2 | 0.00 | 0.00 | 0.00 | 71 | 1015.3 |
| 20260509101710 | 55 | 203 | 1.7 | 5.2 | 0.00 | 0.00 | 0.00 | 72 | 1015.2 |
| 20260509101200 | 56 | 180 | 1.7 | 3.5 | 0.00 | 0.00 | 0.00 | 72 | 1015.2 |
| 20260509100139 | 56 | 203 | 2.6 | 3.5 | 0.00 | 0.00 | 0.00 | 71 | 1014.7 |
| 20260509095629 | 56 | 203 | 0.9 | 5.2 | 0.00 | 0.00 | 0.00 | 72 | 1014.7 |
| 20260509095119 | 56 | 248 | 1.7 | 5.2 | 0.00 | 0.00 | 0.00 | 70 | 1014.4 |
| 20260509094607 | 56 | 248 | 2.6 | 3.5 | 0.00 | 0.00 | 0.00 | 70 | 1014.4 |
| 20260509094059 | 56 | 203 | 2.6 | 7.8 | 0.00 | 0.00 | 0.00 | 70 | 1014.1 |
| 20260509093549 | 56 | 225 | 3.5 | 7.8 | 0.00 | 0.00 | 0.00 | 70 | 1014.0 |
| 20260509092528 | 56 | 248 | 3.5 | 7.8 | 0.00 | 0.00 | 0.00 | 70 | 1013.7 |
| 20260509092018 | 56 | 225 | 3.5 | 7.8 | 0.00 | 0.00 | 0.00 | 70 | 1013.5 |
| 20260509091508 | 56 | 180 | 3.5 | 5.2 | 0.00 | 0.00 | 0.00 | 71 | 1013.6 |
| 20260509090448 | 56 | 248 | 1.7 | 5.2 | 0.00 | 0.00 | 0.00 | 71 | 1013.1 |
| 20260509085938 | 56 | 225 | 2.6 | 5.2 | 0.00 | 0.00 | 0.00 | 71 | 1013.0 |
| 20260509085428 | 56 | 225 | 2.6 | 5.2 | 0.00 | 0.00 | 0.00 | 72 | 1013.1 |
| 20260509084407 | 56 | 225 | 1.7 | 7.0 | 0.00 | 0.00 | 0.00 | 74 | 1012.8 |
| 20260509082837 | 56 | 225 | 4.3 | 9.6 | 0.00 | 0.00 | 0.00 | 73 | 1011.9 |
| 20260509082327 | 56 | 203 | 3.5 | 7.8 | 0.00 | 0.00 | 0.00 | 72 | 1012.0 |
| 20260509081816 | 56 | 203 | 4.3 | 7.0 | 0.00 | 0.00 | 0.00 | 73 | 1012.0 |
| 20260509081306 | 55 | 225 | 3.5 | 7.0 | 0.00 | 0.00 | 0.00 | 74 | 1011.8 |
| 20260509080757 | 55 | 248 | 3.5 | 7.0 | 0.00 | 0.00 | 0.00 | 75 | 1011.9 |
| 20260509075736 | 55 | 203 | 3.5 | 7.0 | 0.00 | 0.00 | 0.00 | 75 | 1011.7 |
| 20260509074716 | 56 | 203 | 3.5 | 6.1 | 0.00 | 0.00 | 0.00 | 74 | 1011.9 |
| 20260509073657 | 56 | 225 | 2.6 | 5.2 | 0.00 | 0.00 | 0.00 | 75 | 1011.8 |
| 20260509073145 | 56 | 203 | 2.6 | 5.2 | 0.00 | 0.00 | 0.00 | 74 | 1011.7 |
| 20260509072635 | 56 | 248 | 2.6 | 3.5 | 0.00 | 0.00 | 0.00 | 74 | 1011.5 |
| 20260509072126 | 56 | 203 | 2.6 | 5.2 | 0.00 | 0.00 | 0.00 | 74 | 1011.6 |
| 20260509071616 | 56 | 225 | 2.6 | 6.1 | 0.00 | 0.00 | 0.00 | 74 | 1011.4 |
| 20260509071105 | 56 | 225 | 3.5 | 6.1 | 0.00 | 0.00 | 0.00 | 73 | 1011.5 |
| 20260509070602 | 56 | 248 | 3.5 | 9.6 | 0.00 | 0.00 | 0.00 | 72 | 1011.3 |
| 20260509070046 | 56 | 248 | 3.5 | 9.6 | 0.00 | 0.00 | 0.00 | 73 | 1011.4 |
| 20260509065536 | 56 | 180 | 3.5 | 9.6 | 0.00 | 0.00 | 0.00 | 73 | 1011.2 |
| 20260509065025 | 56 | 203 | 3.5 | 7.0 | 0.00 | 0.00 | 0.00 | 72 | 1011.1 |
| 20260509064516 | 56 | 203 | 3.5 | 6.1 | 0.00 | 0.00 | 0.00 | 73 | 1011.1 |
| 20260509064005 | 56 | 203 | 3.5 | 6.1 | 0.00 | 0.00 | 0.00 | 74 | 1011.1 |
| 20260509063455 | 56 | 248 | 1.7 | 6.1 | 0.00 | 0.00 | 0.00 | 76 | 1011.0 |
| 20260509062944 | 56 | 225 | 3.5 | 6.1 | 0.00 | 0.00 | 0.00 | 77 | 1010.8 |
| 20260509062434 | 56 | 248 | 3.5 | 6.1 | 0.00 | 0.00 | 0.00 | 78 | 1010.9 |
| 20260509061924 | 56 | 248 | 1.7 | 6.1 | 0.00 | 0.00 | 0.00 | 80 | 1010.8 |
| 20260509060904 | 56 | 203 | 1.7 | 3.5 | 0.00 | 0.00 | 0.00 | 82 | 1011.0 |
| 20260509060155 | 56 | 225 | 0.9 | 0.0 | 0.00 | 0.00 | 0.00 | 82 | 1011.2 |
| 20260509055027 | 55 | 248 | 0.9 | 1.7 | 0.00 | 0.00 | 0.00 | 81 | 1011.1 |
| 20260509054518 | 55 | 248 | 1.7 | 1.7 | 0.00 | 0.00 | 0.00 | 80 | 1011.1 |
| 20260509054007 | 55 | 225 | 0.9 | 3.5 | 0.00 | 0.00 | 0.00 | 80 | 1011.3 |
| 20260509053457 | 55 | 225 | 0.9 | 3.5 | 0.00 | 0.00 | 0.00 | 79 | 1011.2 |
| 20260509052947 | 55 | 248 | 1.7 | 3.5 | 0.00 | 0.00 | 0.00 | 79 | 1011.0 |
| 20260509051417 | 55 | 225 | 1.7 | 3.5 | 0.00 | 0.00 | 0.00 | 79 | 1011.0 |
| 20260509050907 | 55 | 248 | 1.7 | 3.5 | 0.00 | 0.00 | 0.00 | 78 | 1011.3 |
| 20260509050357 | 55 | 248 | 0.9 | 3.5 | 0.00 | 0.00 | 0.00 | 78 | 1011.4 |
| 20260509045846 | 55 | 248 | 1.7 | 3.5 | 0.00 | 0.00 | 0.00 | 77 | 1011.4 |
| 20260509045336 | 55 | 225 | 1.7 | 6.1 | 0.00 | 0.00 | 0.00 | 78 | 1011.4 |
| 20260509044826 | 55 | 270 | 3.5 | 6.1 | 0.00 | 0.00 | 0.00 | 78 | 1011.4 |
| 20260509044316 | 55 | 248 | 1.7 | 3.5 | 0.00 | 0.00 | 0.00 | 79 | 1011.4 |
| 20260509043256 | 55 | 248 | 1.7 | 3.5 | 0.00 | 0.00 | 0.00 | 80 | 1011.5 |
| 20260509042745 | 55 | 248 | 0.9 | 3.5 | 0.00 | 0.00 | 0.00 | 80 | 1011.6 |
| 20260509042235 | 55 | 270 | 1.7 | 3.5 | 0.00 | 0.00 | 0.00 | 79 | 1011.7 |
| 20260509041727 | 55 | 270 | 1.7 | 3.5 | 0.00 | 0.00 | 0.00 | 79 | 1011.8 |
| 20260509041216 | 55 | 270 | 1.7 | 3.5 | 0.00 | 0.00 | 0.00 | 78 | 1012.0 |
| 20260509040705 | 55 | 248 | 1.7 | 3.5 | 0.00 | 0.00 | 0.00 | 77 | 1011.9 |
| 20260509040155 | 55 | 248 | 1.7 | 3.5 | 0.00 | 0.00 | 0.00 | 77 | 1011.9 |
| 20260509035134 | 55 | 270 | 1.7 | 3.5 | 0.00 | 0.00 | 0.00 | 77 | 1011.8 |
| 20260509034625 | 55 | 270 | 1.7 | 3.5 | 0.00 | 0.00 | 0.00 | 77 | 1011.6 |
| 20260509034114 | 55 | 270 | 1.7 | 3.5 | 0.00 | 0.00 | 0.00 | 77 | 1011.6 |
| 20260509033605 | 55 | 270 | 0.9 | 3.5 | 0.00 | 0.00 | 0.00 | 77 | 1011.6 |
| 20260509033054 | 55 | 270 | 0.9 | 3.5 | 0.00 | 0.00 | 0.00 | 77 | 1011.5 |
| 20260509032544 | 55 | 248 | 1.7 | 3.5 | 0.00 | 0.00 | 0.00 | 78 | 1011.6 |
| 20260509032035 | 55 | 225 | 1.7 | 3.5 | 0.00 | 0.00 | 0.00 | 78 | 1011.3 |
| 20260509031524 | 55 | 225 | 1.7 | 3.5 | 0.00 | 0.00 | 0.00 | 80 | 1011.8 |
| 20260509030504 | 55 | 248 | 1.7 | 3.5 | 0.00 | 0.00 | 0.00 | 80 | 1011.6 |
| 20260509025954 | 55 | 248 | 1.7 | 3.5 | 0.00 | 0.00 | 0.00 | 81 | 1011.6 |
| 20260509025443 | 55 | 270 | 1.7 | 5.2 | 0.00 | 0.00 | 0.00 | 82 | 1011.7 |
| 20260509024424 | 56 | 248 | 1.7 | 3.5 | 0.00 | 0.00 | 0.00 | 84 | 1011.5 |
| 20260509023914 | 56 | 293 | 2.6 | 3.5 | 0.00 | 0.00 | 0.00 | 84 | 1011.5 |
| 20260509023403 | 55 | 248 | 1.7 | 3.5 | 0.00 | 0.00 | 0.00 | 87 | 1011.6 |
| 20260509022854 | 54 | 270 | 0.0 | 0.0 | 0.00 | 0.00 | 0.00 | 90 | 1011.6 |
| 20260509022343 | 54 | 293 | 0.0 | 0.0 | 0.00 | 0.00 | 0.00 | 91 | 1011.7 |
| 20260509021322 | 54 | 293 | 0.0 | 0.0 | 0.00 | 0.00 | 0.00 | 92 | 1011.6 |
| 20260509020302 | 54 | 293 | 0.0 | 0.0 | 0.00 | 0.00 | 0.00 | 93 | 1011.8 |
| 20260509014732 | 53 | 293 | 0.0 | 1.7 | 0.00 | 0.00 | 0.00 | 96 | 1011.1 |
| 20260509014223 | 53 | 293 | 0.0 | 1.7 | 0.00 | 0.00 | 0.00 | 96 | 1011.0 |
| 20260509012652 | 53 | 338 | 0.0 | 0.0 | 0.00 | 0.00 | 0.00 | 96 | 1011.1 |
| 20260509012142 | 53 | 338 | 0.0 | 0.0 | 0.00 | 0.00 | 0.00 | 96 | 1011.0 |
| 20260509011632 | 53 | 338 | 0.0 | 0.0 | 0.00 | 0.00 | 0.00 | 96 | 1010.7 |
| 20260509011120 | 53 | 338 | 0.0 | 0.0 | 0.00 | 0.00 | 0.00 | 96 | 1010.6 |
| 20260509010611 | 53 | 338 | 0.0 | 0.0 | 0.00 | 0.00 | 0.00 | 96 | 1010.2 |
| 20260509005551 | 53 | 338 | 0.0 | 0.0 | 0.00 | 0.00 | 0.00 | 96 | 1010.3 |
| 20260509005041 | 52 | 338 | 0.0 | 0.0 | 0.00 | 0.00 | 0.00 | 95 | 1010.2 |
| 20260509004534 | 53 | 338 | 0.0 | 0.0 | 0.00 | 0.00 | 0.00 | 95 | 1010.1 |
| 20260509004020 | 53 | 338 | 0.0 | 0.0 | 0.00 | 0.00 | 0.00 | 95 | 1010.2 |
| 20260509003512 | 53 | 338 | 0.0 | 0.0 | 0.00 | 0.00 | 0.00 | 95 | 1010.0 |
| 20260509003000 | 52 | 338 | 0.0 | 0.0 | 0.00 | 0.00 | 0.00 | 95 | 1010.0 |
| 20260509002450 | 52 | 338 | 0.0 | 0.0 | 0.00 | 0.00 | 0.00 | 95 | 1010.0 |
| 20260509001940 | 53 | 338 | 0.0 | 0.0 | 0.00 | 0.00 | 0.00 | 95 | 1009.9 |
| 20260508235900 | 54 | 338 | 0.0 | 0.0 | 0.00 | 0.00 | 0.00 | 94 | 1009.9 |
| 20260508235349 | 54 | 338 | 0.0 | 0.0 | 0.00 | 0.00 | 0.00 | 94 | 1009.9 |
| 20260508234840 | 54 | 338 | 0.0 | 0.0 | 0.00 | 0.00 | 0.00 | 93 | 1010.1 |
| 20260508234330 | 54 | 338 | 0.0 | 0.0 | 0.00 | 0.00 | 0.00 | 93 | 1010.0 |
| 20260508233819 | 54 | 338 | 0.0 | 0.0 | 0.00 | 0.00 | 0.00 | 93 | 1009.9 |
| 20260508233309 | 53 | 338 | 0.0 | 0.0 | 0.00 | 0.00 | 0.00 | 92 | 1009.7 |
| 20260508232759 | 54 | 338 | 0.0 | 0.0 | 0.00 | 0.00 | 0.00 | 92 | 1009.8 |
| 20260508232249 | 54 | 338 | 0.0 | 0.0 | 0.00 | 0.00 | 0.00 | 92 | 1009.8 |
| 20260508231739 | 54 | 338 | 0.0 | 0.0 | 0.00 | 0.00 | 0.00 | 92 | 1009.7 |
| 20260508231229 | 54 | 338 | 0.0 | 0.0 | 0.00 | 0.00 | 0.00 | 91 | 1009.3 |
| 20260508230719 | 54 | 338 | 0.0 | 0.0 | 0.00 | 0.00 | 0.00 | 91 | 1009.2 |
| 20260508225658 | 54 | 338 | 0.0 | 0.0 | 0.00 | 0.00 | 0.00 | 90 | 1009.1 |
| 20260508225148 | 55 | 338 | 0.0 | 0.0 | 0.00 | 0.00 | 0.00 | 90 | 1009.2 |
| 20260508224639 | 55 | 338 | 0.0 | 0.0 | 0.00 | 0.00 | 0.00 | 89 | 1009.0 |
| 20260508224128 | 55 | 338 | 0.0 | 0.0 | 0.00 | 0.00 | 0.00 | 89 | 1008.9 |
| 20260508223108 | 56 | 338 | 0.0 | 0.0 | 0.00 | 0.00 | 0.00 | 88 | 1009.0 |
| 20260508222557 | 56 | 315 | 0.0 | 0.0 | 0.00 | 0.00 | 0.00 | 87 | 1009.0 |
| 20260508221537 | 56 | 293 | 0.0 | 0.0 | 0.00 | 0.00 | 0.00 | 85 | 1009.0 |
| 20260508221027 | 56 | 293 | 0.0 | 0.0 | 0.00 | 0.00 | 0.00 | 83 | 1009.4 |
| 20260508220517 | 55 | 293 | 0.0 | 0.0 | 0.00 | 0.00 | 0.00 | 82 | 1009.3 |
| 20260508220012 | 56 | 293 | 0.0 | 0.0 | 0.00 | 0.00 | 0.00 | 81 | 1009.2 |
| 20260508215457 | 56 | 293 | 0.0 | 0.0 | 0.00 | 0.00 | 0.00 | 79 | 1009.4 |
| 20260508214946 | 56 | 293 | 0.0 | 0.0 | 0.00 | 0.00 | 0.00 | 78 | 1009.2 |
| 20260508214436 | 57 | 293 | 0.0 | 0.0 | 0.00 | 0.00 | 0.00 | 76 | 1009.3 |
| 20260508213926 | 58 | 293 | 0.0 | 1.7 | 0.00 | 0.00 | 0.00 | 75 | 1009.3 |
| 20260508211846 | 59 | 293 | 0.0 | 0.0 | 0.00 | 0.00 | 0.00 | 70 | 1009.4 |
| 20260508211336 | 60 | 293 | 0.0 | 0.0 | 0.00 | 0.00 | 0.00 | 72 | 1009.4 |
| 20260508210826 | 61 | 293 | 0.0 | 1.7 | 0.00 | 0.00 | 0.00 | 69 | 1009.4 |
| 20260508210315 | 62 | 293 | 0.0 | 1.7 | 0.00 | 0.00 | 0.00 | 66 | 1009.4 |
| 20260508205806 | 63 | 293 | 0.9 | 1.7 | 0.00 | 0.00 | 0.00 | 62 | 1009.7 |
| 20260508205257 | 64 | 270 | 0.9 | 1.7 | 0.00 | 0.00 | 0.00 | 54 | 1009.4 |
| 20260508204746 | 65 | 270 | 1.7 | 1.7 | 0.00 | 0.00 | 0.00 | 51 | 1009.3 |
| 20260508203725 | 65 | 270 | 0.0 | 3.5 | 0.00 | 0.00 | 0.00 | 49 | 1009.7 |
| 20260508202705 | 66 | 270 | 1.7 | 3.5 | 0.00 | 0.00 | 0.00 | 49 | 1009.4 |
| 20260508202154 | 66 | 270 | 0.0 | 3.5 | 0.00 | 0.00 | 0.00 | 47 | 1009.3 |
| 20260508201644 | 65 | 248 | 1.7 | 3.5 | 0.00 | 0.00 | 0.00 | 48 | 1009.3 |
| 20260508200624 | 66 | 248 | 2.6 | 3.5 | 0.00 | 0.00 | 0.00 | 47 | 1009.7 |
| 20260508200114 | 66 | 293 | 1.7 | 3.5 | 0.00 | 0.00 | 0.00 | 44 | 1009.5 |
| 20260508195604 | 66 | 270 | 1.7 | 3.5 | 0.00 | 0.00 | 0.00 | 45 | 1009.4 |
| 20260508195055 | 67 | 248 | 1.7 | 3.5 | 0.00 | 0.00 | 0.00 | 43 | 1009.5 |
| 20260508194034 | 67 | 270 | 1.7 | 7.8 | 0.00 | 0.00 | 0.00 | 42 | 1009.5 |
| 20260508193013 | 67 | 248 | 1.7 | 5.2 | 0.00 | 0.00 | 0.00 | 44 | 1009.4 |
| 20260508191955 | 67 | 270 | 3.5 | 3.5 | 0.00 | 0.00 | 0.00 | 43 | 1009.7 |
| 20260508191444 | 68 | 293 | 1.7 | 5.2 | 0.00 | 0.00 | 0.00 | 44 | 1009.7 |
| 20260508190933 | 67 | 248 | 1.7 | 7.0 | 0.00 | 0.00 | 0.00 | 44 | 1009.4 |
| 20260508190423 | 67 | 293 | 1.7 | 7.0 | 0.00 | 0.00 | 0.00 | 44 | 1009.4 |
| 20260508185913 | 67 | 293 | 2.6 | 5.2 | 0.00 | 0.00 | 0.00 | 44 | 1009.5 |
| 20260508184342 | 67 | 270 | 3.5 | 6.1 | 0.00 | 0.00 | 0.00 | 45 | 1009.4 |
| 20260508183833 | 68 | 248 | 3.5 | 6.1 | 0.00 | 0.00 | 0.00 | 44 | 1009.5 |
| 20260508182812 | 68 | 293 | 1.7 | 5.2 | 0.00 | 0.00 | 0.00 | 47 | 1009.7 |
| 20260508182306 | 67 | 270 | 2.6 | 7.0 | 0.00 | 0.00 | 0.00 | 48 | 1009.8 |
| 20260508181752 | 67 | 315 | 1.7 | 7.0 | 0.00 | 0.00 | 0.00 | 48 | 1010.2 |
| 20260508181242 | 67 | 315 | 1.7 | 6.1 | 0.00 | 0.00 | 0.00 | 45 | 1010.1 |
| 20260508180732 | 67 | 270 | 3.5 | 6.1 | 0.00 | 0.00 | 0.00 | 48 | 1009.9 |
| 20260508180222 | 67 | 270 | 1.7 | 6.1 | 0.00 | 0.00 | 0.00 | 49 | 1010.2 |
| 20260508175712 | 67 | 270 | 1.7 | 6.1 | 0.00 | 0.00 | 0.00 | 45 | 1010.4 |
| 20260508175202 | 67 | 248 | 1.7 | 7.0 | 0.00 | 0.00 | 0.00 | 44 | 1010.2 |
| 20260508174142 | 67 | 270 | 4.3 | 6.1 | 0.00 | 0.00 | 0.00 | 45 | 1010.2 |
| 20260508173631 | 67 | 248 | 3.5 | 7.0 | 0.00 | 0.00 | 0.00 | 42 | 1010.4 |
| 20260508173120 | 68 | 270 | 1.7 | 7.8 | 0.00 | 0.00 | 0.00 | 45 | 1010.4 |
| 20260508172611 | 67 | 293 | 3.5 | 7.8 | 0.00 | 0.00 | 0.00 | 45 | 1010.3 |
| 20260508172101 | 68 | 203 | 1.7 | 6.1 | 0.00 | 0.00 | 0.00 | 44 | 1010.4 |
| 20260508171041 | 66 | 270 | 2.6 | 7.8 | 0.00 | 0.00 | 0.00 | 43 | 1010.7 |
| 20260508170531 | 67 | 270 | 4.3 | 7.0 | 0.00 | 0.00 | 0.00 | 45 | 1010.7 |
| 20260508170020 | 69 | 248 | 0.9 | 7.0 | 0.00 | 0.00 | 0.00 | 46 | 1010.8 |
| 20260508165510 | 69 | 203 | 5.2 | 7.0 | 0.00 | 0.00 | 0.00 | 49 | 1010.7 |
| 20260508165000 | 67 | 293 | 2.6 | 6.1 | 0.00 | 0.00 | 0.00 | 48 | 1010.5 |
| 20260508164449 | 66 | 225 | 3.5 | 6.1 | 0.00 | 0.00 | 0.00 | 47 | 1010.9 |
| 20260508163430 | 66 | 248 | 1.7 | 7.0 | 0.00 | 0.00 | 0.00 | 47 | 1011.1 |
| 20260508162920 | 67 | 248 | 2.6 | 7.0 | 0.00 | 0.00 | 0.00 | 48 | 1011.0 |
| 20260508162409 | 67 | 248 | 3.5 | 7.0 | 0.00 | 0.00 | 0.00 | 47 | 1011.1 |
| 20260508161900 | 66 | 270 | 3.5 | 5.2 | 0.00 | 0.00 | 0.00 | 46 | 1011.3 |
| 20260508161350 | 67 | 248 | 1.7 | 7.0 | 0.00 | 0.00 | 0.00 | 51 | 1011.1 |
| 20260508160840 | 66 | 270 | 2.6 | 7.0 | 0.00 | 0.00 | 0.00 | 49 | 1011.5 |
| 20260508160330 | 66 | 270 | 3.5 | 7.0 | 0.00 | 0.00 | 0.00 | 48 | 1011.3 |
| 20260508155819 | 66 | 270 | 1.7 | 6.1 | 0.00 | 0.00 | 0.00 | 49 | 1011.6 |
| 20260508155308 | 65 | 248 | 3.5 | 6.1 | 0.00 | 0.00 | 0.00 | 48 | 1011.5 |
| 20260508154249 | 65 | 293 | 2.6 | 5.2 | 0.00 | 0.00 | 0.00 | 54 | 1011.7 |
| 20260508153739 | 64 | 270 | 1.7 | 6.1 | 0.00 | 0.00 | 0.00 | 52 | 1011.5 |
| 20260508153228 | 64 | 270 | 1.7 | 6.1 | 0.00 | 0.00 | 0.00 | 52 | 1011.8 |
| 20260508152718 | 65 | 270 | 2.6 | 6.1 | 0.00 | 0.00 | 0.00 | 50 | 1011.8 |
| 20260508152208 | 67 | 203 | 0.9 | 7.0 | 0.00 | 0.00 | 0.00 | 53 | 1012.0 |
| 20260508151658 | 65 | 315 | 0.9 | 7.0 | 0.00 | 0.00 | 0.00 | 50 | 1012.0 |
| 20260508151148 | 66 | 248 | 4.3 | 7.0 | 0.00 | 0.00 | 0.00 | 51 | 1012.0 |
| 20260508150128 | 65 | 315 | 2.6 | 6.1 | 0.00 | 0.00 | 0.00 | 55 | 1012.2 |
| 20260508145108 | 65 | 293 | 2.6 | 5.2 | 0.00 | 0.00 | 0.00 | 54 | 1012.3 |
| 20260508144557 | 64 | 270 | 1.7 | 5.2 | 0.00 | 0.00 | 0.00 | 56 | 1012.4 |
| 20260508144047 | 65 | 315 | 2.6 | 5.2 | 0.00 | 0.00 | 0.00 | 59 | 1012.7 |
| 20260508143537 | 63 | 203 | 1.7 | 6.1 | 0.00 | 0.00 | 0.00 | 59 | 1012.6 |
| 20260508143027 | 63 | 248 | 3.5 | 6.1 | 0.00 | 0.00 | 0.00 | 61 | 1012.7 |
| 20260508142516 | 63 | 293 | 2.6 | 6.1 | 0.00 | 0.00 | 0.00 | 63 | 1012.5 |
| 20260508142007 | 63 | 270 | 3.5 | 6.1 | 0.00 | 0.00 | 0.00 | 63 | 1012.6 |
| 20260508140946 | 63 | 225 | 1.7 | 6.1 | 0.00 | 0.00 | 0.00 | 67 | 1012.5 |
| 20260508135926 | 62 | 248 | 1.7 | 6.1 | 0.00 | 0.00 | 0.00 | 69 | 1012.5 |